星链-31018 (STARLINK-31018 )

导读

STARLINK-31018是美国太空探索技术公司星链(Starlink)星座的卫星,于2023年12月23日发射,服务全球卫星互联网接入,提供高速低延迟网络服务,满足偏远地区通信、移动网络覆盖等需求,属于星链批量部署的卫星之一,助力完善低轨通信星座组网。

Basic Information
目录编号:
58635
目录名称:
STARLINK-31018
国际标识:
2023-203T
轨道中心:
EARTH
卫星名称:
星链-31018
卫星全名:
星链-31018 (STARLINK-31018 )
卫星状态:
在轨 (已飞行986 天)
发射日期:
2023-12-23 UTC
国别 :
美国 (US)
星等 :
--
Orbit Information
数据来源 国际轨道数据
星历时间: 2026-09-04T10:25:39+0800
9小时前
查看轨道信息
半长轴: 6861.227km
偏心率: 0.0001051
轨道倾角: 43.003°
近地点辐角 267.948°
升交点赤经 139.821°
平近点角 92.125°
近地点: 482.368km
远地点: 483.812km
周期: 94.268分钟
每日圈数: 15.275664
Detailed Information
固有亮度:
5
最大亮度:
0.3
卫星平台:
Starlink v2.0 mini
覆盖范围:
全球
运营商:
太空探索技术公司
运营商所在国:
美国
制造商(研发单位):
太空探索技术公司
制造商所在国:
美国
使用方式:
暂无
Satellite Introduction
星链(Starlink)计划是由太空探索技术公司(SpaceX)提出的一个巨型低轨卫星互联网星座项目,计划在2019年至2024年间在太空搭建由约1.2万颗卫星组成的“星链”网络,其中1584颗将部署在地球上空550千米处的近地轨道,并从2020年开始工作。该卫星仍在工作。
2D Orbit Map
3D Orbit Map
Orbit Altitude Analysis Chart
Orbit Inclination Analysis Chart
Orbit Comprehensive Analysis Chart
View Comprehensive Chart
Conjunction Data List
Event ID Objects TCA Miss Dist (km) Collision Risk Probability Collision Risk Index (CRI) Action
CDM_260905-172605-863506-196221
2026-09-05T
17:26:31+0000
0.435 km
远距离
1.937977E-4 高风险 0.81
CDM_260906-082105-863506-196221
2026-09-06T
08:21:00+0000
1.025 km
极远距离
1.593481E-5 中风险 0.59
CDM_260906-095505-863506-196221
2026-09-06T
09:55:09+0000
1.196 km
极远距离
9.339374E-6 低风险 0.54
CDM_260905-190005-863506-196221
2026-09-05T
19:00:41+0000
1.276 km
极远距离
7.462683E-6 低风险 0.52
CDM_260905-110705-863506-307221
2026-09-05T
11:07:37+0000
1.666 km
极远距离
2.850833E-6 低风险 0.44
CDM_260906-045105-863506-289721
2026-09-06T
04:51:08+0000
1.853 km
极远距离
2.391074E-6 低风险 0.43
CDM_260905-155205-863506-196221
2026-09-05T
15:52:22+0000
2.098 km
极远距离
1.718383E-6 低风险 0.4
CDM_260906-064605-863506-196221
2026-09-06T
06:46:50+0000
2.919 km
极远距离
9.673203E-7 极低风险 0.35